Location: Poughquag
(41.6090°N, 73.6820°W)
Time: 17:49:32
(UTC-04:00)

Envisat - Visible Passes

Search period start: 25 April 2018 00:00
Search period end: 05 May 2018 00:00
Orbit: 764 x 766 km, 98.2° (Epoch: 25 April)

Date Brightness Start Highest point End Pass type
(mag) Time Alt. Az. Time Alt. Az. Time Alt. Az.
25 Apr 4.5 20:57:59 10° SSW 21:02:37 35° W 21:07:17 10° NNW visible
26 Apr 3.2 20:20:43 10° S 20:25:47 80° WSW 20:30:54 10° NNW visible
27 Apr 5.4 21:24:40 10° SW 21:28:24 20° W 21:32:09 10° NW visible
28 Apr 4.1 20:46:35 10° S 20:51:25 45° W 20:56:18 10° NNW visible
29 Apr 5.9 21:52:46 10° WSW 21:54:16 11° W 21:55:47 10° WNW visible
30 Apr 5.1 21:12:59 10° SSW 21:17:09 26° W 21:21:22 10° NW visible
01 May 3.7 20:35:16 10° S 20:40:14 57° W 20:45:15 10° NNW visible
02 May 5.7 21:40:13 10° WSW 21:42:59 15° W 21:45:45 10° WNW visible
03 May 4.7 21:01:25 10° SSW 21:05:56 32° W 21:10:29 10° NNW visible
04 May 3.3 20:24:00 10° S 20:29:04 72° WSW 20:34:10 10° NNW visible
